Lincoln County, Oregon, United States
Lat: 44.65N, Lon: 123.85W
Wx Zone: ORZ004
Local Info
Past Weather Observations for Monday, October 27, 2014

NOTE: This archive is for the closest National Weather Service station to Lincoln County. Information may differ from the station used for current weather conditions.

Click here for Long-term Archive

Time Weather Temperature Dewpoint Humidity Pressure Winds Precip Visibility
23:55
Partly Cloudy
57°F / 14°C 46°F / 8°C 67% 29.98 in
(1015 mb)
S 8.1 mph
(S 13 kph)
- 10SM
23:35
Partly Cloudy
55°F / 13°C 46°F / 8°C 72% 29.98 in
(1015 mb)
S 10.4 mph
(S 17 kph)
- 10SM
23:15
Mostly Cloudy
55°F / 13°C 46°F / 8°C 72% 30.01 in
(1016 mb)
S 10.4 mph
(S 17 kph)
- 10SM
22:55
Mostly Cloudy
55°F / 13°C 48°F / 9°C 77% 30.01 in
(1016 mb)
SSE 8.1 mph
(SSE 13 kph)
- 10SM
22:35
Partly Cloudy
55°F / 13°C 48°F / 9°C 77% 30.01 in
(1016 mb)
SSE 6.9 mph
(SSE 11 kph)
- 10SM
22:15
Partly Cloudy
55°F / 13°C 48°F / 9°C 77% 30.01 in
(1016 mb)
SSE 6.9 mph
(SSE 11 kph)
- 10SM
21:55
Partly Cloudy
55°F / 13°C 48°F / 9°C 77% 30.01 in
(1016 mb)
SE 5.8 mph
(SE 9 kph)
- 10SM
21:35
Mostly Cloudy
55°F / 13°C 50°F / 10°C 82% 30.01 in
(1016 mb)
SE 6.9 mph
(SE 11 kph)
- 10SM
21:15
Mostly Cloudy
55°F / 13°C 50°F / 10°C 82% 30.01 in
(1016 mb)
SSE 10.4 mph
(SSE 17 kph)
- 10SM
20:55
Mostly Cloudy
55°F / 13°C 50°F / 10°C 82% 30.01 in
(1016 mb)
SSE 6.9 mph
(SSE 11 kph)
- 10SM
20:35
Mostly Cloudy
54°F / 12°C 50°F / 10°C 88% 30.01 in
(1016 mb)
SSE 4.6 mph
(SSE 7 kph)
- 10SM
20:15
Mostly Cloudy
54°F / 12°C 50°F / 10°C 88% 30.01 in
(1016 mb)
SE 3.5 mph
(SE 6 kph)
- 10SM
19:55
Overcast
54°F / 12°C 50°F / 10°C 88% 30.01 in
(1016 mb)
SE 4.6 mph
(SE 7 kph)
- 10SM
19:35
Mostly Cloudy
54°F / 12°C 50°F / 10°C 88% 30.04 in
(1017 mb)
SE 5.8 mph
(SE 9 kph)
- 10SM
19:15
Partly Cloudy
54°F / 12°C 50°F / 10°C 88% 30.04 in
(1017 mb)
SE 4.6 mph
(SE 7 kph)
- 10SM
18:55
Partly Cloudy
54°F / 12°C 50°F / 10°C 88% 30.04 in
(1017 mb)
SE 4.6 mph
(SE 7 kph)
- 10SM
18:35
Partly Cloudy
55°F / 13°C 50°F / 10°C 82% 30.04 in
(1017 mb)
SE 4.6 mph
(SE 7 kph)
- 10SM
18:15
Partly Cloudy
54°F / 12°C 50°F / 10°C 88% 30.04 in
(1017 mb)
SE 5.8 mph
(SE 9 kph)
- 10SM
17:55
Partly Cloudy
54°F / 12°C 50°F / 10°C 88% 30.04 in
(1017 mb)
SE 6.9 mph
(SE 11 kph)
- 10SM
17:35
Partly Cloudy
54°F / 12°C 50°F / 10°C 88% 30.06 in
(1018 mb)
SE 5.8 mph
(SE 9 kph)
- 10SM
17:15
Mostly Cloudy
54°F / 12°C 50°F / 10°C 88% 30.06 in
(1018 mb)
S 4.6 mph
(S 7 kph)
- 10SM
16:55
Partly Cloudy
55°F / 13°C 50°F / 10°C 82% 30.06 in
(1018 mb)
S 5.8 mph
(S 9 kph)
- 10SM
16:35
Partly Cloudy
55°F / 13°C 50°F / 10°C 82% 30.06 in
(1018 mb)
SSE 4.6 mph
(SSE 7 kph)
- 10SM
16:15
Partly Cloudy
55°F / 13°C 50°F / 10°C 82% 30.06 in
(1018 mb)
SE 5.8 mph
(SE 9 kph)
- 10SM
15:55
Clear
55°F / 13°C 52°F / 11°C 88% 30.06 in
(1018 mb)
SSE 5.8 mph
(SSE 9 kph)
- 10SM
15:35
Clear
55°F / 13°C 52°F / 11°C 88% 30.09 in
(1019 mb)
SSE 10.4 mph
(SSE 17 kph)
- 10SM
15:15
Clear
Light Rain
57°F / 14°C 52°F / 11°C 82% 30.09 in
(1019 mb)
SSE 11.5 mph
(SSE 19 kph)
- 10SM
14:55
Clear
57°F / 14°C 50°F / 10°C 77% 30.09 in
(1019 mb)
S 9.2 mph
(S 15 kph)
- 10SM
14:35
Clear
57°F / 14°C 50°F / 10°C 77% 30.09 in
(1019 mb)
SW 8.1 mph
(SW 13 kph)
- 10SM
14:15
Clear
57°F / 14°C 52°F / 11°C 82% 30.09 in
(1019 mb)
SSE 8.1 mph
(SSE 13 kph)
- 10SM
13:55
Clear
59°F / 15°C 50°F / 10°C 72% 30.09 in
(1019 mb)
SW 8.1 mph
(SW 13 kph)
- 10SM
13:35
Clear
59°F / 15°C 50°F / 10°C 72% 30.09 in
(1019 mb)
SSE 5.8 mph
(SSE 9 kph)
- 7SM
13:15
Clear
59°F / 15°C 50°F / 10°C 72% 30.09 in
(1019 mb)
S 4.6 mph
(S 7 kph)
- 10SM
12:55
Clear
59°F / 15°C 50°F / 10°C 72% 30.09 in
(1019 mb)
SSE 5.8 mph
(SSE 9 kph)
- 10SM
12:35
Clear
57°F / 14°C 50°F / 10°C 77% 30.12 in
(1020 mb)
SW 5.8 mph
(SW 9 kph)
- 10SM
12:15
Partly Cloudy
59°F / 15°C 50°F / 10°C 72% 30.12 in
(1020 mb)
SW 5.8 mph
(SW 9 kph)
- 10SM
11:55
Partly Cloudy
59°F / 15°C 50°F / 10°C 72% 30.12 in
(1020 mb)
SW 5.8 mph
(SW 9 kph)
- 10SM
11:35
Partly Cloudy
61°F / 16°C 46°F / 8°C 59% 30.12 in
(1020 mb)
S 5.8 mph
(S 9 kph)
- 10SM
11:15
Clear
61°F / 16°C 46°F / 8°C 59% 30.12 in
(1020 mb)
SSE 5.8 mph
(SSE 9 kph)
- 10SM
10:55
Clear
61°F / 16°C 48°F / 9°C 63% 30.12 in
(1020 mb)
SSE 6.9 mph
(SSE 11 kph)
- 10SM
10:35
Clear
59°F / 15°C 48°F / 9°C 68% 30.12 in
(1020 mb)
S 5.8 mph
(S 9 kph)
- 10SM
10:15
Clear
57°F / 14°C 50°F / 10°C 77% 30.12 in
(1020 mb)
ESE 5.8 mph
(ESE 9 kph)
- 10SM
09:55
Clear
55°F / 13°C 50°F / 10°C 82% 30.12 in
(1020 mb)
E 6.9 mph
(E 11 kph)
- 10SM
09:35
Clear
55°F / 13°C 50°F / 10°C 82% 30.15 in
(1021 mb)
E 5.8 mph
(E 9 kph)
- 10SM
09:15
Clear
54°F / 12°C 50°F / 10°C 88% 30.15 in
(1021 mb)
E 6.9 mph
(E 11 kph)
- 10SM
08:55
Clear
52°F / 11°C 50°F / 10°C 94% 30.15 in
(1021 mb)
E 5.8 mph
(E 9 kph)
- 10SM
08:35
Clear
50°F / 10°C 48°F / 9°C 94% 30.15 in
(1021 mb)
E 3.5 mph
(E 6 kph)
- 10SM
08:15
Clear
50°F / 10°C 48°F / 9°C 94% 30.15 in
(1021 mb)
E 5.8 mph
(E 9 kph)
- 10SM
07:55
Clear
48°F / 9°C 46°F / 8°C 94% 30.15 in
(1021 mb)
E 6.9 mph
(E 11 kph)
- 10SM
07:35
Clear
46°F / 8°C 46°F / 8°C 100% 30.15 in
(1021 mb)
E 5.8 mph
(E 9 kph)
- 10SM
07:15
Clear
46°F / 8°C 46°F / 8°C 100% 30.15 in
(1021 mb)
E 6.9 mph
(E 11 kph)
- 10SM
06:55
Clear
46°F / 8°C 46°F / 8°C 100% 30.15 in
(1021 mb)
E 5.8 mph
(E 9 kph)
- 10SM
06:35
Clear
46°F / 8°C 46°F / 8°C 100% 30.15 in
(1021 mb)
E 6.9 mph
(E 11 kph)
- 10SM
06:15
Clear
48°F / 9°C 46°F / 8°C 94% 30.15 in
(1021 mb)
E 5.8 mph
(E 9 kph)
- 10SM
05:55
Clear
48°F / 9°C 46°F / 8°C 94% 30.15 in
(1021 mb)
E 4.6 mph
(E 7 kph)
- 10SM
05:35
Clear
48°F / 9°C 46°F / 8°C 94% 30.15 in
(1021 mb)
E 5.8 mph
(E 9 kph)
- 10SM
05:15
Clear
48°F / 9°C 46°F / 8°C 94% 30.15 in
(1021 mb)
E 5.8 mph
(E 9 kph)
- 10SM
04:55
Clear
48°F / 9°C 46°F / 8°C 94% 30.15 in
(1021 mb)
E 4.6 mph
(E 7 kph)
- 10SM
04:35
Clear
48°F / 9°C 46°F / 8°C 94% 30.15 in
(1021 mb)
E 4.6 mph
(E 7 kph)
- 10SM
04:15
Clear
48°F / 9°C 46°F / 8°C 94% 30.15 in
(1021 mb)
E 5.8 mph
(E 9 kph)
- 10SM
03:55
Clear
48°F / 9°C 46°F / 8°C 94% 30.15 in
(1021 mb)
E 5.8 mph
(E 9 kph)
- 10SM
03:35
Clear
48°F / 9°C 46°F / 8°C 94% 30.15 in
(1021 mb)
E 5.8 mph
(E 9 kph)
- 10SM
03:15
Clear
48°F / 9°C 46°F / 8°C 94% 30.18 in
(1022 mb)
ESE 5.8 mph
(ESE 9 kph)
- 10SM
02:55
Clear
48°F / 9°C 46°F / 8°C 94% 30.18 in
(1022 mb)
E 5.8 mph
(E 9 kph)
- 10SM
02:35
Clear
48°F / 9°C 46°F / 8°C 94% 30.18 in
(1022 mb)
E 5.8 mph
(E 9 kph)
- 10SM
02:15
Clear
48°F / 9°C 46°F / 8°C 94% 30.18 in
(1022 mb)
ESE 5.8 mph
(ESE 9 kph)
- 10SM
01:55
Clear
48°F / 9°C 46°F / 8°C 94% 30.18 in
(1022 mb)
ESE 4.6 mph
(ESE 7 kph)
- 10SM
01:35
Clear
50°F / 10°C 46°F / 8°C 88% 30.18 in
(1022 mb)
ESE 5.8 mph
(ESE 9 kph)
- 10SM
01:15
Clear
48°F / 9°C 46°F / 8°C 94% N/A ESE 6.9 mph
(ESE 11 kph)
- 10SM
00:55
Clear
48°F / 9°C 46°F / 8°C 94% 30.21 in
(1023 mb)
SE 3.5 mph
(SE 6 kph)
- 10SM
00:35
Clear
50°F / 10°C 46°F / 8°C 88% 30.21 in
(1023 mb)
SE 3.5 mph
(SE 6 kph)
- 10SM
00:15
Clear
50°F / 10°C 46°F / 8°C 88% 30.21 in
(1023 mb)
SE 3.5 mph
(SE 6 kph)
- 10SM
Time Weather Temperature Dewpoint Humidity Pressure Winds Precip Visibility


Weather for websites

WeatherForYou.com, LLC is not responsible for any damages or problems caused by this service. Current weather conditions are obtained from the closest station including government and personal stations which may have varying degrees of accuracy. Weather forecasts are derived from the NOAA NDFD. Like all things, this site belongs to Jesus Christ... He just trusts me to maintain it. If you have any questions or comments email webmaster@weatherforyou.com

Copyright © 2014, WeatherForYou.com LLC. All rights reserved.